Regional Weather Roundup
Issued by NWS

Home | Current Version | Previous Version | Text Only | Print | Product List | Glossary Off
Versions: 1 2 3 4 5 6 7 8 9 10 11 12 13 14 15 16 17 18 19 20 21 22 23 24 25 26 27 28 29 30 31 32 33 34 35 36 37 38 39 40 41 42 43 44 45 46 47 48 49 50

000
ASUS43 KIND 211009
RWRIN

WEATHER ROUNDUP FOR INDIANA
NATIONAL WEATHER SERVICE INDIANAPOLIS IN
600 AM EDT TUE OCT 21 2014

NOTE: "FAIR" INDICATES FEW OR NO CLOUDS BELOW 12,000 FEET WITH NO
SIGNIFICANT WEATHER AND/OR OBSTRUCTIONS TO VISIBILITY.

* - STATION DOES NOT REPORT WEATHER SUCH AS PRECIPITATION OR FOG.

+ - STATION NOT QUALITY CONTROLLED BY THE NATIONAL WEATHER SERVICE.
    USE DATA WITH CAUTION...ESPECIALLY DEWPOINT AND RELATIVE
    HUMIDITY OBSERVATIONS.

INZ001>003-010>013-019-020-211100-
NORTHWEST INDIANA

CITY           SKY/WX    TMP DP  RH WIND       PRES   REMARKS
GARY /AIRPORT/ CLOUDY    52  46  82 N14       30.04R
KNOX *+        CLOUDY    47  45  90 N7        30.01R
LA PORTE +     DRIZZLE   49  49  98 N5        30.02R
MICHIGAN CITY+ RAIN      48  43  81 N13G18    30.03R
MONTICELLO +   CLOUDY    48  46  93 NW5       30.01R
RENSSELAER +   CLOUDY    48  46  93 W3        30.03R
VALPARAISO     LGT RAIN  48  45  89 N8        30.03R

$$

LMZ046-743>745-211100-
SOUTHERN LAKE MICHIGAN

STATION/POSITION TIME  TEMP WIND        PRES
                       AIR  DIR/SP/G
                 (UTC) (F)  (DEG/KT/KT) (MB)
MICHIGAN CITY    1000   51  350/ 17/ 20   N/A

$$

INZ004-005-014>016-021>024-211100-
NORTH CENTRAL INDIANA

CITY           SKY/WX    TMP DP  RH WIND       PRES   REMARKS
GOSHEN         CLOUDY    48  41  76 NW8       29.99R
LOGANSPORT +   CLOUDY    48  43  81 N6        30.01R
PERU/GRISSOM   CLOUDY    49  49 100 NW7       29.99R
ROCHESTER +    MOCLDY    50  45  81 N8        30.01R
SOUTH BEND     CLOUDY    48  45  89 NW5       30.01R
WARSAW +       CLOUDY    46  43  87 NW5       29.99R

$$

INZ006>009-017-018-025>027-211100-
NORTHEAST INDIANA

CITY           SKY/WX    TMP DP  RH WIND       PRES   REMARKS
ANGOLA *+      CLOUDY    46  43  87 NW5       29.97R
AUBURN +       CLOUDY    46  41  81 NW8       29.97R
FORT WAYNE     CLOUDY    48  41  76 NW9       29.98R
HUNTINGTON +   CLOUDY    48  43  84 CALM      29.97R

$$

INZ028-029-035-036-043>045-051>053-211100-
WEST CENTRAL INDIANA

CITY           SKY/WX    TMP DP  RH WIND       PRES   REMARKS
GREENCASTLE +  CLOUDY    46  45  93 CALM      30.02R
LAFAYETTE      CLOUDY    47  45  93 NW6       30.02R
TERRE HAUTE    MOCLDY    49  46  90 CALM      30.02R

$$

INZ030>032-037>040-046>048-054>057-064-065-211100-
CENTRAL INDIANA

CITY           SKY/WX    TMP DP  RH WIND       PRES   REMARKS
CP ATTERBURY + CLOUDY    46  45  93 NW5       30.00R
FRANKFORT +    CLOUDY   N/A N/A N/A NW3       30.02R FOG
INDIANAPOLIS   PTCLDY    44  42  93 NW7       30.00R
-EAGLE CREEK   PTCLDY    47  44  90 NW6       29.99R
KOKOMO *+      CLOUDY    48  43  81 N9        30.00R
MARION +       CLOUDY    48  43  84 NW8       29.99R
MT COMFORT *+  CLOUDY    48  48 100 NW6       30.00R
SHELBYVILLE    CLOUDY    48  45  89 NW6       29.99R
ZIONSVILLE +   CLOUDY    48  44  85 NW6       30.00R

$$

INZ033-034-041-042-049-050-058-059-211100-
EAST CENTRAL INDIANA

CITY           SKY/WX    TMP DP  RH WIND       PRES   REMARKS
MUNCIE         CLOUDY    49  45  86 NW8       29.97R

$$

INZ060-061-067>069-081>083-085>088-211100-
SOUTHWEST INDIANA

CITY           SKY/WX    TMP DP  RH WIND       PRES   REMARKS
EVANSVILLE     CLEAR     46  43  89 SW5       30.02R
HUNTINGBURG *+ CLOUDY    46  41  81 N5        30.02R
WASHINGTON +   CLOUDY    46  45  95 NW5       30.02R

$$

INZ062-063-066-070>080-084-089>092-211100-
SOUTH CENTRAL AND SOUTHEAST INDIANA

CITY           SKY/WX    TMP DP  RH WIND       PRES   REMARKS
BLOOMINGTON    CLOUDY    48  46  93 CALM      30.01R

$$




USA.gov is the U.S. government's official web portal to all federal, state and local government web resources and services.